[[{"header":{"parameterUnit":"m.s-1","parameterCategory":1,"la1":30.2991,"la2":30.254,"lo1":-89.0895,"lo2":-89.0444,"dy":0.0017,"dx":0.0017,"nx":28,"ny":28,"refTime":"2024-02-16T03:00:00:Z","depth":0,"parameterNumber":2,"parameterNumberName":"U-component_of_WINDS"},"data":[0,0,0,0,0,0,0,0,0,0,0,0,0,0,0,0,0,0,0,0,0,0,0,0,0,0,0,0,0,0,0,0,0,0,0,0,0,0,0,0,0,0,0,0,0,0,0,0,0,0,0,0,0,0,0,0,0,0,1.5624,1.5625,0,1.5681,1.5681,1.5682,1.5708,1.5708,1.5708,1.5708,1.5765,1.5767,1.5769,0,0,0,0,0,0,0,0,0,0,0,0,0,1.5541,1.5542,1.5624,1.5625,1.5626,1.568,1.5681,1.5682,1.5708,1.5708,1.5708,1.5708,1.5765,1.5767,1.5769,0,0,0,0,0,0,0,0,0,0,0,0,0,1.5585,1.5543,1.5624,1.5645,1.5648,1.568,1.5681,1.5682,1.5708,1.5708,1.5708,1.5708,1.5764,1.5767,1.5769,1.5785,0,0,1.5776,1.5777,0,0,0,0,0,0,0,0,1.5582,1.5588,1.5641,1.5644,1.5647,1.5687,1.5673,1.5717,1.5708,1.5685,1.5708,1.5708,1.5739,1.5744,1.5755,1.5788,1.579,1.5776,1.5778,1.5779,1.578,0,0,0,0,0,0,0,1.5579,1.5586,1.5647,1.5642,1.5645,1.5652,1.5658,1.5681,1.5712,1.5687,1.5689,1.5695,1.5741,1.5752,1.5756,1.5791,1.5776,1.5779,1.578,1.5781,1.5841,1.5841,0,0,0,0,0,0,1.5573,1.5583,1.5645,1.5648,1.5614,1.5654,1.5661,1.5674,1.5712,1.5717,1.5695,1.5696,1.5748,1.5753,1.5758,1.578,1.5779,1.5781,1.5783,1.5841,1.5841,1.5841,0,0,0,0,0,0,1.5571,1.5578,1.5643,1.5616,1.5625,1.5655,1.567,1.5675,1.5687,1.5718,1.5724,1.5701,1.5748,1.5755,1.5778,1.5782,1.5782,1.5784,1.5841,1.5841,1.5841,1.5823,0,0,0,0,0,0,1.5568,1.5577,1.5583,1.5616,1.5626,1.5661,1.567,1.5676,1.5691,1.5692,1.5725,1.573,1.5749,1.5775,1.5781,1.5785,1.5786,1.584,1.5841,1.5841,1.5823,1.5822,1.5822,0,0,0,0,0,1.5565,1.5576,1.5583,1.5591,1.5635,1.5661,1.5667,1.5688,1.5691,1.5697,1.5718,1.5729,1.5781,1.5777,1.5784,1.5789,1.584,1.5841,1.5841,1.5824,1.5823,1.5822,0,0,0,0,0,0,1.5543,1.5581,1.5589,1.5611,1.5633,1.5666,1.5675,1.5686,1.5708,1.5709,1.5734,1.5741,1.5762,1.5778,1.5773,1.5807,1.5812,1.5813,1.5796,1.5795,1.5795,1.579,1.5788,0,0,0,0,0,1.554,1.5559,1.5591,1.5607,1.5617,1.5644,1.5657,1.5671,1.5695,1.5704,1.5726,1.5749,1.577,1.5784,1.5805,1.5826,1.5834,1.5833,1.5832,1.5832,1.5833,1.5846,1.5846,1.5842,1.5842,1.5842,0,0,1.5535,1.5558,1.5568,1.5603,1.5622,1.564,1.5652,1.5671,1.5685,1.5707,1.573,1.5747,1.5775,1.5797,1.5808,1.5811,1.5836,1.5832,1.5831,1.5833,1.5846,1.5846,1.5847,1.5843,1.5843,1.5843,0,0,1.5536,1.5555,1.5571,1.5589,1.5617,1.5635,1.5639,1.567,1.5682,1.5706,1.5723,1.5741,1.5777,1.5796,1.581,1.5818,1.583,1.5825,1.5821,1.5833,1.5833,1.5833,1.5837,1.5838,1.5826,1.5826,1.5826,0,1.5526,1.5555,1.5577,1.5596,1.5611,1.5631,1.5647,1.5664,1.5698,1.5708,1.5711,1.5757,1.5777,1.5804,1.5806,1.5817,1.5822,1.5821,1.5831,1.5832,1.5833,1.5836,1.5837,1.5825,1.5825,1.5825,1.5825,0,1.5542,1.5562,1.5571,1.5603,1.5619,1.5636,1.5661,1.5675,1.5688,1.5706,1.573,1.5755,1.5781,1.5789,1.5802,1.5818,1.5819,1.5826,1.5831,1.5832,1.5835,1.5837,1.5824,1.5824,1.5824,1.5824,0,0,1.553,1.5574,1.5577,1.5592,1.5625,1.5641,1.5659,1.5685,1.5697,1.5719,1.5736,1.5766,1.5773,1.5789,1.5805,1.5815,1.5821,1.5821,1.5822,1.582,1.5841,1.5835,1.5836,1.5829,1.5829,1.5829,1.5839,0,1.5535,1.5569,1.5589,1.5615,1.5634,1.5654,1.567,1.5692,1.5709,1.5728,1.5747,1.5768,1.5776,1.5786,1.5797,1.5818,1.5825,1.5817,1.5845,1.5845,1.5837,1.5838,1.5832,1.5839,1.584,1.584,1.5841,0,1.5546,1.5568,1.5595,1.5626,1.5635,1.5649,1.5675,1.5693,1.5718,1.573,1.5748,1.5764,1.5785,1.5788,1.5817,1.5811,1.5824,1.5836,1.5837,1.584,1.5843,1.5841,1.5842,1.5843,1.5843,1.5843,1.5843,0,1.5534,1.5571,1.5592,1.5604,1.5641,1.565,1.5666,1.5692,1.5706,1.5729,1.5739,1.5764,1.5778,1.5797,1.5819,1.5819,1.5846,1.5851,1.5857,1.5856,1.5862,1.5861,1.5864,1.5869,1.5869,1.5869,1.5869,0,1.5538,1.5554,1.5587,1.56,1.5619,1.5643,1.5661,1.5678,1.5701,1.5718,1.5737,1.5753,1.5781,1.58,1.5818,1.5839,1.5846,1.5856,1.586,1.5854,1.5853,1.5863,1.5863,1.587,1.587,1.587,1.587,0,1.5528,1.5551,1.5575,1.5608,1.5617,1.5629,1.5658,1.5671,1.569,1.5711,1.5717,1.5746,1.577,1.5794,1.5826,1.5838,1.5859,1.5865,1.5851,1.5853,1.5857,1.5857,1.5867,1.587,1.5873,1.5873,1.5873,0,1.5528,1.5541,1.5575,1.5588,1.5604,1.5624,1.5639,1.5663,1.5678,1.5709,1.5719,1.5744,1.5765,1.5803,1.5827,1.5852,1.5858,1.586,1.5862,1.5856,1.5859,1.5857,1.5859,1.5859,1.5859,1.5859,1.5859,0,1.5527,1.5538,1.5559,1.5584,1.5602,1.5623,1.5644,1.5654,1.5682,1.5698,1.5723,1.5739,1.5772,1.5797,1.5825,1.5842,1.5855,1.5858,1.5861,1.5855,1.5846,1.5851,1.5848,1.5858,1.5858,1.5858,1.5858,1.5858,1.5523,1.5535,1.5562,1.5584,1.5603,1.5623,1.5638,1.5658,1.5679,1.5707,1.572,1.5745,1.5771,1.581,1.5827,1.5847,1.585,1.5854,1.5855,1.5855,1.5854,1.5843,1.5852,1.5852,1.5852,1.5852,1.5852,0,1.5523,1.5541,1.5562,1.5591,1.5609,1.562,1.5645,1.566,1.5681,1.5704,1.5725,1.5753,1.5778,1.5804,1.583,1.5841,1.5848,1.5847,1.5847,1.585,1.5849,1.5844,1.5841,1.5841,1.5841,1.5841,1.5841,1.5841,1.5525,1.5547,1.5561,1.5592,1.561,1.5635,1.5648,1.5666,1.5685,1.5716,1.5736,1.5753,1.5778,1.5806,1.5829,1.5836,1.5845,1.5842,1.5851,1.585,1.585,1.5851,1.5847,1.5844,1.5844,1.5851,1.5851,1.5851]},{"header":{"parameterUnit":"m.s-1","parameterCategory":1,"la1":30.2991,"la2":30.254,"lo1":-89.0895,"lo2":-89.0444,"dy":0.0017,"dx":0.0017,"nx":28,"ny":28,"refTime":"2024-02-16T03:00:00:Z","depth":0,"parameterNumber":3,"parameterNumberName":"V-component_of_WINDS"},"data":[0,0,0,0,0,0,0,0,0,0,0,0,0,0,0,0,0,0,0,0,0,0,0,0,0,0,0,0,0,0,0,0,0,0,0,0,0,0,0,0,0,0,0,0,0,0,0,0,0,0,0,0,0,0,0,0,0,0,-2.0161,-2.0161,0,-2.0168,-2.0168,-2.0168,-2.0151,-2.015,-2.015,-2.0149,-2.0156,-2.0157,-2.0157,0,0,0,0,0,0,0,0,0,0,0,0,0,-2.0131,-2.0131,-2.0161,-2.0161,-2.0161,-2.0168,-2.0168,-2.0168,-2.0151,-2.015,-2.0149,-2.0149,-2.0156,-2.0157,-2.0157,0,0,0,0,0,0,0,0,0,0,0,0,0,-2.0142,-2.0132,-2.0161,-2.0153,-2.0152,-2.0168,-2.0168,-2.0168,-2.0151,-2.015,-2.0149,-2.0148,-2.0156,-2.0157,-2.0158,-2.0181,0,0,-2.0161,-2.0161,0,0,0,0,0,0,0,0,-2.0141,-2.0143,-2.0154,-2.0154,-2.0153,-2.0158,-2.016,-2.0173,-2.0151,-2.0152,-2.0149,-2.0148,-2.0157,-2.0158,-2.0161,-2.0181,-2.0182,-2.0161,-2.0162,-2.0162,-2.0162,0,0,0,0,0,0,0,-2.014,-2.0142,-2.0164,-2.0154,-2.0154,-2.0149,-2.015,-2.0163,-2.0159,-2.0151,-2.015,-2.0151,-2.0157,-2.016,-2.0161,-2.0182,-2.0161,-2.0162,-2.0162,-2.0163,-2.0222,-2.0222,0,0,0,0,0,0,-2.0141,-2.0142,-2.0163,-2.0164,-2.0145,-2.015,-2.0151,-2.0157,-2.0159,-2.0158,-2.0152,-2.015,-2.0159,-2.016,-2.0162,-2.0189,-2.0162,-2.0163,-2.0164,-2.0221,-2.0222,-2.0223,0,0,0,0,0,0,-2.014,-2.0143,-2.0163,-2.0153,-2.0155,-2.0152,-2.0159,-2.0158,-2.0161,-2.0159,-2.0158,-2.0156,-2.0158,-2.016,-2.0176,-2.0189,-2.0163,-2.0164,-2.022,-2.0221,-2.0222,-2.0245,0,0,0,0,0,0,-2.0139,-2.0143,-2.0152,-2.0153,-2.0155,-2.0178,-2.0159,-2.0158,-2.0163,-2.0161,-2.0163,-2.0163,-2.0158,-2.0175,-2.0177,-2.019,-2.0165,-2.0218,-2.022,-2.0222,-2.0243,-2.0247,-2.025,0,0,0,0,0,-2.0138,-2.0157,-2.0152,-2.0155,-2.0167,-2.0179,-2.018,-2.0175,-2.0164,-2.0173,-2.0172,-2.0163,-2.0187,-2.0177,-2.0179,-2.0193,-2.0218,-2.022,-2.0222,-2.0241,-2.0246,-2.025,0,0,0,0,0,0,-2.0157,-2.0157,-2.0152,-2.0172,-2.0175,-2.0176,-2.0187,-2.018,-2.0186,-2.0184,-2.0176,-2.0177,-2.0195,-2.0195,-2.0183,-2.0216,-2.0201,-2.0203,-2.0215,-2.0219,-2.0223,-2.0222,-2.0166,0,0,0,0,0,-2.0164,-2.0174,-2.0173,-2.0191,-2.0193,-2.019,-2.0195,-2.019,-2.0194,-2.0195,-2.0195,-2.0199,-2.0207,-2.0213,-2.0221,-2.0243,-2.0243,-2.0253,-2.0257,-2.026,-2.0262,-2.0274,-2.0279,-2.023,-2.023,-2.023,0,0,-2.0177,-2.0179,-2.0185,-2.0195,-2.0197,-2.0208,-2.0191,-2.0203,-2.0211,-2.0197,-2.0213,-2.0213,-2.0216,-2.0236,-2.0244,-2.0236,-2.0276,-2.0263,-2.0265,-2.0266,-2.0277,-2.0281,-2.0286,-2.0231,-2.0231,-2.023,0,0,-2.0207,-2.021,-2.0225,-2.0228,-2.0232,-2.0229,-2.0233,-2.0235,-2.0234,-2.025,-2.024,-2.0249,-2.0264,-2.0267,-2.027,-2.0302,-2.0294,-2.0305,-2.0324,-2.0335,-2.0339,-2.0343,-2.0354,-2.0359,-2.0307,-2.0307,-2.0308,0,-2.0224,-2.024,-2.0233,-2.0246,-2.0251,-2.0239,-2.0254,-2.0257,-2.0264,-2.0267,-2.0259,-2.0277,-2.0279,-2.0299,-2.0307,-2.031,-2.0314,-2.0305,-2.0339,-2.0343,-2.0346,-2.0357,-2.0361,-2.0309,-2.0309,-2.0309,-2.0308,0,-2.026,-2.0271,-2.0282,-2.0289,-2.0295,-2.0309,-2.0305,-2.0312,-2.0307,-2.0305,-2.0321,-2.0323,-2.0331,-2.0335,-2.033,-2.0355,-2.035,-2.0341,-2.0325,-2.0352,-2.0362,-2.0366,-2.0311,-2.031,-2.031,-2.031,0,0,-2.0302,-2.0305,-2.031,-2.0313,-2.0316,-2.0325,-2.0338,-2.0347,-2.0353,-2.0357,-2.0369,-2.0382,-2.0373,-2.0377,-2.0373,-2.0383,-2.0408,-2.0372,-2.0372,-2.0379,-2.0436,-2.0443,-2.0448,-2.0403,-2.0404,-2.0404,-2.0435,0,-2.0332,-2.0355,-2.035,-2.0373,-2.0384,-2.0373,-2.0385,-2.0388,-2.0387,-2.0396,-2.0395,-2.0404,-2.0392,-2.0394,-2.0404,-2.0403,-2.042,-2.0401,-2.0413,-2.0414,-2.0413,-2.0453,-2.0461,-2.049,-2.0439,-2.044,-2.0441,0,-2.037,-2.0377,-2.0401,-2.0403,-2.0407,-2.0418,-2.0426,-2.0434,-2.0438,-2.0436,-2.0441,-2.0434,-2.0448,-2.0433,-2.0451,-2.0439,-2.0443,-2.0444,-2.0445,-2.0446,-2.0429,-2.0455,-2.0499,-2.0504,-2.0447,-2.0446,-2.0446,0,-2.0398,-2.0413,-2.043,-2.0433,-2.0436,-2.0444,-2.0446,-2.0449,-2.0454,-2.0461,-2.0464,-2.0472,-2.0476,-2.0482,-2.0478,-2.0467,-2.0497,-2.0482,-2.0496,-2.0497,-2.0503,-2.0503,-2.0549,-2.0506,-2.0506,-2.0506,-2.0506,0,-2.0432,-2.0448,-2.0443,-2.0453,-2.047,-2.0464,-2.0481,-2.0481,-2.0484,-2.0494,-2.0485,-2.0495,-2.0489,-2.0498,-2.0494,-2.051,-2.0512,-2.0511,-2.051,-2.0512,-2.0512,-2.0515,-2.0513,-2.0507,-2.0507,-2.0507,-2.0506,0,-2.0467,-2.0465,-2.0482,-2.0484,-2.0485,-2.0497,-2.0499,-2.0508,-2.0507,-2.0519,-2.0522,-2.052,-2.053,-2.0526,-2.0537,-2.0535,-2.0555,-2.0552,-2.0554,-2.0553,-2.0569,-2.0567,-2.0618,-2.0624,-2.0578,-2.0578,-2.0578,0,-2.0489,-2.0501,-2.0504,-2.0511,-2.0513,-2.0523,-2.0529,-2.0523,-2.053,-2.0535,-2.0544,-2.0554,-2.0561,-2.0578,-2.0577,-2.0585,-2.0582,-2.0599,-2.0583,-2.0585,-2.0582,-2.0582,-2.0583,-2.0602,-2.0603,-2.0603,-2.0604,0,-2.0529,-2.0527,-2.0536,-2.0544,-2.0551,-2.0557,-2.0563,-2.0568,-2.0563,-2.0571,-2.0581,-2.0587,-2.0598,-2.0608,-2.0616,-2.0617,-2.061,-2.0609,-2.0613,-2.0615,-2.0616,-2.0616,-2.0563,-2.0607,-2.0607,-2.0607,-2.0607,-2.0606,-2.0558,-2.0568,-2.0572,-2.0582,-2.0586,-2.0591,-2.06,-2.06,-2.0609,-2.0618,-2.0614,-2.0626,-2.063,-2.064,-2.0642,-2.0652,-2.0645,-2.0651,-2.0652,-2.0654,-2.0656,-2.0614,-2.0653,-2.0653,-2.0653,-2.0653,-2.0653,0,-2.0597,-2.0599,-2.0609,-2.0617,-2.0625,-2.0617,-2.0623,-2.063,-2.0641,-2.0645,-2.0653,-2.0665,-2.0675,-2.0675,-2.0684,-2.0691,-2.0688,-2.0694,-2.0693,-2.0694,-2.0661,-2.0657,-2.0696,-2.0696,-2.0696,-2.0696,-2.0696,-2.0696,-2.0619,-2.0635,-2.0634,-2.0653,-2.0654,-2.0667,-2.0671,-2.0676,-2.0679,-2.0693,-2.0701,-2.0701,-2.0704,-2.0713,-2.0721,-2.0721,-2.0725,-2.0732,-2.073,-2.07,-2.0696,-2.0692,-2.0688,-2.0733,-2.0733,-2.0762,-2.0762,-2.0763]}]]